P/2005 YQ127 (LINEAR)

T 2005 Nov. 3.97042 TT                                  Nakano

q   1.9189465            (2000.0)            P               Q

n   0.12968043     Peri.  152.30743     +0.34395308     -0.89438921

a   3.8656253      Node   276.37830     +0.79953556     +0.43864663

e   0.5035871      Incl.   16.72183     +0.49238111     -0.08750469

P   7.60 (+/- 0.09 day)

From 117 observations 2005 Dec. 5-2006 Jan. 28.

Residuals in seconds of arc 

2005/                     060102 704 (3.1+  0.2+)   060110 H06  0.1-  0.2-  

051205 704  0.0   0.6+    060104 H45  0.3+  0.3-    060110 H06  0.1+  0.2-  

051205 704  0.1-  0.3+    060104 H45  0.7-  0.2+    060110 H06  0.4+  0.7-  

051205 704  0.1-  0.5+    060104 H45  0.5+  0.4+    060110 A48  0.7-  0.3+  

051205 704  0.2-  0.1+    060104 H45  0.2+  0.7+    060110 A48  1.0-  0.5+  

051205 704  0.0   0.7+    060104 H45  0.3+  0.0     060110 A48  0.9-  0.4+  

051210 691  0.4-  0.4+    060105 704  0.9+  0.3+    060110 A48  0.5-  0.4+  

051210 691  0.4+  1.1-    060105 704 (5.4+  0.0 )   060111 673  0.3-  0.3+  

051210 691  0.3-  0.1+    060105 704  0.8+  1.4-    060111 673  0.9-  0.7+  

051228 704  1.7-  1.3+    060105 704  0.5+  0.5-    060111 673  0.4-  0.2+  

051228 704  0.2-  0.2+    060105 704  0.3+  0.1-    060111 673  0.0   0.3+  

051228 704  0.3-  0.6-    060106 160  0.6-  1.0+    060111 160  0.8-  0.6+  

051228 704  0.4-  0.1-    060106 A57  0.2-  0.5+    060111 160  0.4-  0.1-  

051228 704  1.0-  1.3+    060106 A57  0.0   0.5+    060111 160  0.1-  0.0   

051229 704  0.2+  0.3+    060106 A57  0.6-  1.0+    060111 160  0.8-  0.3+  

051229 704  0.4+  0.8-    060106 A57  0.4-  0.5+    060111 160  0.4+  0.3-  

051229 704  0.1+  1.0-    060109 A30  0.5+  0.4-    060111 160  0.5-  0.7+  

051229 704  0.3+  0.5-    060109 A30  0.7+  0.2-    060116 A80  0.2+  0.7+  

051229 704  0.5-  1.8-    060109 A30  0.7+  0.2+    060116 A80  0.4-  0.4+  

051230 704  0.3+  1.2-    060109 A48  0.1+  0.3-    060116 A80  0.1+  0.3+  

051230 704  0.5+  0.9-    060109 A48  1.0+  0.6+    060118 349  0.0   1.1+  

051230 704  1.1+  1.1-    060109 A48  0.6+  0.3+    060118 349  0.0   0.7+  

051230 704  0.8+  1.6-    060109 A48  0.5+  0.1+    060118 349  0.5-  0.5+  

051230 704  0.4+  1.8-    060109 A57  0.7+  0.5+    060119 104  0.3-  0.3+  

051231 691  0.4-  0.5+    060109 A57  0.4-  0.6-    060119 104  0.1-  0.2+  

051231 691  0.2-  0.5+    060109 560  0.2-  0.4+    060119 104  0.1-  0.3+  

051231 691  0.9+  0.0     060109 A57  0.4-  0.5+    060119 215  0.9-  1.4-  

051231 704  0.6+  0.7+    060109 A57  1.0+  0.2+    060119 215  0.8-  1.2-  

051231 704  0.0   0.5-    060109 560  0.1-  0.8+    060119 215  1.0-  1.1-  

051231 704  0.4+  0.3-    060109 560  0.2-  0.8+    060122 349  0.1+  0.4-  

051231 704  0.1-  0.5+    060109 147  0.0   0.5+    060122 349  0.7+  0.9-  

051231 704 (1.1-  3.7+)   060109 A57  0.3-  1.9+    060122 349  0.7+  0.2-  

051231 704 (2.8-  0.5+)   060109 147  0.0   0.2-    060123 349  0.7-  0.0   

051231 704  0.2+  0.7-    060109 A57  1.1-  0.7-    060123 349  0.7-  0.4+  

051231 704  0.1+  0.9-    060109 A57  0.3-  0.1+    060123 349  1.3-  0.3+  

051231 704  0.1-  0.7-    060109 A57  0.5+  0.3-    060126 H45  0.6-  0.7-  

2006/                     060109 203  0.2-  0.2+    060126 H45  1.1+  0.7-  

060102 704  0.1+  0.4+    060110 203  0.1+  0.0     060126 H45  0.7-  0.4-  

060102 704  0.7+  0.1-    060110 204  0.3+  0.3+    060128 349  1.5+  0.1-  

060102 704  1.1+  0.2-    060110 204  0.4+  0.1-    060128 349  1.4+  0.3-  

060102 704  0.3+  0.2-    060110 204  0.0   0.0     060128 349  1.3+  0.2-  





NAKANO

         **** Don't distribute anyone except personal use only ****

                (C) Copyright 2006 OAA/ComputingSection

write mail from CFAD0::NAKANO on 2006-02-06 06:49:21(JST).

 

    P/2001 YX127 (LINEAR)                                                 

Epoch 2003 Mar. 22.0 TT = JDT 2452720.5  

T 2003 Mar. 7.00352 TT                                  Nakano

q   3.4262910            (2000.0)            P               Q

n   0.11553804     Peri.  115.87814     -0.83430292     -0.54670007

a   4.1749638      Node    31.12762     +0.44366481     -0.74237178

e   0.1793244      Incl.    7.90738     +0.32726163     -0.38730244

P   8.53 (+/- 0.01 day)

From 84 observations 2001 Dec. 9-2003 May 23, mean residual 0".62.



NAKANO

         **** Don't distribute anyone except personal use only ****

                (C) Copyright 2003 OAA/ComputingSection

write mail from CFAD0::NAKANO on 2003-06-18 05:56:37(JST).

 

    P/2001 YX127 (LINEAR)                                                 

Epoch 2003 Mar. 22.0 TT = JDT 2452720.5  

T 2003 Mar. 6.99067 TT                                  Nakano

q   3.4263069            (2000.0)            P               Q

n   0.11553802     Peri.  115.87571     -0.83428193     -0.54673201

a   4.1749644      Node    31.12786     +0.44369301     -0.74235497

e   0.1793207      Incl.    7.90739     +0.32727691     -0.38728956

P   8.53 (+/- 0.02 day)

From 55 observations 2001 Dec. 9-2003 Feb. 6, mean residual 0".66.



NAKANO

         **** Don't distribute anyone except personal use only ****

                (C) Copyright 2003 OAA/ComputingSection

write mail from CFAD0::NAKANO on 2003-02-19 01:17:07(JST).

 

    P/2001 YX127 (LINEAR)                                                 

Epoch 2003 Mar. 22.0 TT = JDT 2452720.5  

T 2003 Mar. 6.96740 TT                                  Nakano

q   3.4263334            (2000.0)            P               Q

n   0.11553171     Peri.  115.87245     -0.83424507     -0.54678844

a   4.1751163      Node    31.12724     +0.44374355     -0.74232437

e   0.1793442      Incl.    7.90738     +0.32730236     -0.38726854

P   8.53 (+/- 0.06 day)

From 32 observations 2001 Dec. 9-2002 Dec. 14, mean residual 0".74.



NAKANO

         **** Don't distribute anyone except personal use only ****

                (C) Copyright 2003 OAA/ComputingSection

write mail from CFAD0::NAKANO on 2003-01-07 05:12:31(JST).

 

◎P/2001 YX127の軌道と予報位置です



 12月13日と14日に久万の中村彰正氏は,3月以来観測の途絶えている

この彗星の再観測に成功しました.彗星の位置は,予報より赤経方向で

-0゚.05,赤緯方向で+0゚.03ほど離れていました.氏の CCD全光度は,そ

れぞれ,19.6等,19.7等でした.



    P/2001 YX127 (LINEAR) 

Epoch 2003 Mar. 22.0 TT = JDT 2452720.5  

T 2003 Mar. 6.98936 TT                                  Nakano

q   3.4262918            (2000.0)            P               Q

n   0.11551570     Peri.  115.87777     -0.83428591     -0.54672641

a   4.1755021      Node    31.12618     +0.44368882     -0.74235634

e   0.1794300      Incl.    7.90738     +0.32727243     -0.38729486

P   8.53 (+/- 0.10 day)

From 30 observations 2001 Dec. 9-2002 Dec. 14, mean residual 0".73.

 

Date/        TT  R.A.(2000) Decl.     Delta   r     Daily motion  Mag.  Moon Age

              h    h  m       。  ,                      ,  / PA 。  m1      。

2002 Dec. 15 18  10 16.54  +20 30.2   2.913  3.441     3.4 /  72  19.1  111  .85

          16 18  10 16.77  +20 31.2   2.900  3.441     3.1 /  69  19.1   99  .91

          17 18  10 16.98  +20 32.4   2.887  3.441     2.9 /  65  19.1   87  .96

          18 18  10 17.16  +20 33.6   2.874  3.440     2.7 /  60  19.0   74  .99

          19 18  10 17.33  +20 34.9   2.861  3.440     2.5 /  55  19.0   62 1.00

          20 18  10 17.48  +20 36.4   2.848  3.440     2.4 /  49  19.0   49  .99

          21 18  10 17.61  +20 37.9   2.835  3.439     2.2 /  43  19.0   36  .96

          22 18  10 17.71  +20 39.6   2.822  3.439     2.1 /  35  19.0   23  .91

          23 18  10 17.80  +20 41.3   2.810  3.439     2.1 /  27  19.0   10  .83

          24 18  10 17.87  +20 43.2   2.798  3.438     2.0 /  19  19.0    6  .74

          25 18  10 17.92  +20 45.1   2.786  3.438     2.1 /  10  19.0   19  .64

          26 18  10 17.94  +20 47.1   2.773  3.438     2.1 /   2  19.0   32  .53

          27 18  10 17.95  +20 49.2   2.762  3.437     2.2 / 354  19.0   46  .42

          28 18  10 17.93  +20 51.5   2.750  3.437     2.4 / 347  18.9   61  .31

          29 18  10 17.89  +20 53.8   2.738  3.437     2.5 / 341  18.9   75  .21

          30 18  10 17.83  +20 56.2   2.727  3.436     2.7 / 336  18.9   89  .12

          31 18  10 17.75  +20 58.6   2.716  3.436     2.9 / 331  18.9  104  .06

2003 Jan.  1 18  10 17.65  +21 01.2   2.705  3.436     3.1 / 327  18.9  118  .02

           2 18  10 17.53  +21 03.9   2.694  3.435     3.4 / 324  18.9  132  .00

           3 18  10 17.39  +21 06.6   2.683  3.435     3.6 / 321  18.9  145  .01

           4 18  10 17.23  +21 09.4   2.673  3.435     3.9 / 318  18.9  159  .04

           5 18  10 17.05  +21 12.3   2.662  3.435     4.1 / 316  18.9  171  .10

           6 18  10 16.84  +21 15.3   2.652  3.434     4.4 / 314  18.9  173  .16

           7 18  10 16.62  +21 18.3   2.642  3.434     4.6 / 312  18.9  162  .24

           8 18  10 16.37  +21 21.4   2.633  3.434     4.9 / 311  18.9  150  .33

           9 18  10 16.11  +21 24.6   2.623  3.434     5.1 / 309  18.8  138  .42

          10 18  10 15.82  +21 27.8   2.614  3.433     5.4 / 308  18.8  126  .52

          11 18  10 15.52  +21 31.1   2.605  3.433     5.6 / 306  18.8  114  .61

          12 18  10 15.20  +21 34.4   2.596  3.433     5.9 / 305  18.8  102  .70

          13 18  10 14.85  +21 37.8   2.588  3.433     6.1 / 304  18.8   90  .78

          14 18  10 14.49  +21 41.3   2.579  3.432     6.4 / 303  18.8   78  .86

          15 18  10 14.11  +21 44.7   2.571  3.432     6.6 / 302  18.8   65  .92

NAKANO

         **** Don't distribute anyone except personal use only ****

                (C) Copyright 2002 OAA/ComputingSection

write mail from CFAD0::NAKANO on 2002-12-16 23:16:07(JST).

 

    P/2001 YX127 (LINEAR)                                                 

Epoch 2003 Mar. 22.0 TT = JDT 2452720.5  

T 2003 Mar. 6.92175 TT                                  Nakano

q   3.4243240            (2000.0)            P               Q

